Location: Rounton
(54.4000°N, 1.3500°W)
Time: 17:23:58
(UTC+00:00)

Tiros 1 - All Passes

Search period start: 06 December 2021 00:00
Search period end: 16 December 2021 00:00
Orbit: 630 x 663 km, 48.4° (Epoch: 05 December)

Date Brightness Start Highest point End Pass type
(mag) Time Alt. Az. Time Alt. Az. Time Alt. Az.
06 Dec - 00:21:16 10° WSW 00:22:38 11° SW 00:23:59 10° SSW night (unlit)
06 Dec - 17:59:07 10° SSW 18:02:34 21° SSE 18:06:01 10° ESE visible
06 Dec - 19:39:39 10° WSW 19:43:58 38° S 19:48:19 10° ESE visible
06 Dec - 21:21:18 10° WSW 21:25:36 37° S 21:29:57 10° SE night (unlit)
06 Dec - 23:03:37 10° WSW 23:07:00 20° SSW 23:10:24 10° SSE night (unlit)
07 Dec - 16:45:15 10° SSE 16:46:56 12° SE 16:48:37 10° ESE visible
07 Dec - 18:24:02 10° SW 18:28:03 29° SSE 18:32:06 10° E visible
07 Dec - 20:05:15 10° WSW 20:09:38 40° S 20:14:03 10° ESE visible
07 Dec - 21:47:09 10° W 21:51:12 29° SSW 21:55:17 10° SE night (unlit)
07 Dec - 23:30:37 10° WSW 23:32:21 12° SW 23:34:04 10° SSW night (unlit)
08 Dec - 17:08:57 10° SSW 17:12:16 20° SSE 17:15:37 10° ESE visible
08 Dec - 18:49:22 10° SW 18:53:39 37° S 18:57:58 10° ESE visible
08 Dec - 20:30:58 10° WSW 20:35:17 37° S 20:39:38 10° ESE visible
08 Dec - 22:13:14 10° WSW 22:16:43 21° SSW 22:20:11 10° SSE night (unlit)
09 Dec - 15:55:25 10° SSE 15:56:39 11° SE 15:57:54 10° SE daylight
09 Dec - 17:33:47 10° SW 17:37:44 28° SSE 17:41:44 10° E visible
09 Dec - 19:14:57 10° WSW 19:19:18 40° S 19:23:42 10° ESE visible
09 Dec - 20:56:49 10° W 21:00:54 30° SSW 21:05:00 10° SE visible
09 Dec - 22:40:03 10° WSW 22:42:04 13° SW 22:44:05 10° SSW night (unlit)
10 Dec - 16:18:47 10° SSW 16:21:59 19° SSE 16:25:12 10° ESE visible
10 Dec - 17:59:05 10° SW 18:03:20 36° SSE 18:07:37 10° ESE visible
10 Dec - 19:40:39 10° WSW 19:44:58 38° S 19:49:19 10° ESE visible
10 Dec - 21:22:52 10° WSW 21:26:24 21° SSW 21:29:57 10° SSE visible
11 Dec - 15:05:57 10° SE 15:06:24 10° SE 15:06:50 10° SE daylight
11 Dec - 16:43:32 10° SW 16:47:26 27° SSE 16:51:22 10° E visible
11 Dec - 18:24:38 10° WSW 18:28:59 40° S 18:33:22 10° ESE visible
11 Dec - 20:06:29 10° W 20:10:35 31° SSW 20:14:43 10° SE visible
11 Dec - 21:49:32 10° WSW 21:51:47 13° SW 21:54:01 10° S night (unlit)
12 Dec - 15:28:38 10° S 15:31:41 18° SSE 15:34:46 10° ESE daylight
12 Dec - 17:08:48 10° SW 17:13:01 35° SSE 17:17:16 10° ESE visible
12 Dec - 18:50:20 10° WSW 18:54:38 38° S 18:58:59 10° ESE visible
12 Dec - 20:32:30 10° WSW 20:36:06 22° SSW 20:39:43 10° SSE visible
13 Dec - 15:53:18 10° SSW 15:57:08 26° SSE 16:01:00 10° E daylight
13 Dec - 17:34:20 10° WSW 17:38:39 40° S 17:43:02 10° ESE visible
13 Dec - 19:16:08 10° W 19:20:16 32° SSW 19:24:25 10° SE visible
13 Dec - 20:59:03 10° WSW 21:01:29 14° SW 21:03:56 10° S visible
14 Dec - 14:38:28 10° S 14:41:24 17° SSE 14:44:20 10° ESE daylight
14 Dec - 16:18:31 10° SW 16:22:41 34° SSE 16:26:54 10° ESE visible
14 Dec - 18:00:01 10° WSW 18:04:19 39° S 18:08:40 10° ESE visible
14 Dec - 19:42:07 10° WSW 19:45:48 23° SSW 19:49:28 10° SSE visible
15 Dec - 15:03:03 10° SSW 15:06:50 25° SSE 15:10:37 10° E daylight
15 Dec - 16:44:01 10° WSW 16:48:21 39° S 16:52:40 10° ESE visible
15 Dec - 18:25:48 10° W 18:29:57 32° SSW 18:34:07 10° SE visible
15 Dec - 20:08:35 10° WSW 20:11:12 15° SW 20:13:49 10° S visible
